Regional Weather Roundup
Issued by NWS

Home | Current Version | Previous Version | Graphics & Text | Print | Product List | Glossary On
Versions: 1 2 3 4 5 6 7 8 9 10 11 12 13 14 15 16 17 18 19 20 21 22 23 24 25 26 27 28 29 30 31 32 33 34 35 36 37 38 39 40 41 42 43 44 45 46 47 48 49
000
ASUS45 KBOU 261207
RWRCO

WEATHER ROUNDUP FOR COLORADO
NATIONAL WEATHER SERVICE DENVER/BOULDER CO
600 AM MDT TUE MAY 26 2015

NOTE: "FAIR" INDICATES FEW OR NO CLOUDS BELOW 12000 FEET WITH NO
SIGNIFICANT WEATHER AND/OR OBSTRUCTIONS TO VISIBILITY.

COZ001>005-013-030-031-261300-
...NORTHWEST COLORADO...

CITY           SKY/WX    TMP DP  RH WIND       PRES   REMARKS
CRAIG          CLOUDY    41  39  93 CALM      30.09S
HAYDEN         CLOUDY    43  36  75 E7        30.10R
MEEKER         MOCLDY    42  39  89 E3        30.10R
MOUNT WERNER   NOT AVBL
STEAMBOAT SPGS CLOUDY    38  37  94 CALM      30.12R
WALDEN         MOCLDY    34  32  93 E3        30.08S
$$

COZ006>008-011-261300-
...WEST CENTRAL VALLEYS...

CITY           SKY/WX    TMP DP  RH WIND       PRES   REMARKS
GRAND JUNCTION PTCLDY    47  45  93 SE10      30.05R
MONTROSE       PTCLDY    44  39  82 SE9       30.12R
EAGLE          CLOUDY    43  43 100 CALM      30.15R
RIFLE          MOCLDY    44  41  89 N5        30.10R
DELTA          PTCLDY    47  42  84 MISG      30.10R
NUCLA          PTCLDY    41  36  81 SE6       30.14S
$$

COZ017>023-064>068-261300-
...SOUTHWEST COLORADO...

CITY           SKY/WX    TMP DP  RH WIND       PRES   REMARKS
DURANGO        CLEAR     34  33  96 CALM      30.15R
CORTEZ         CLEAR     37  36  96 CALM      30.11S
PAGOSA SPRINGS CLEAR     36  36 100 CALM      30.19R
TELLURIDE      PTCLDY    36  34  93 SE6       30.24S
WOLF CREEK PAS NOT AVBL
$$

COZ009-010-012-014-032>034-037-058>063-261300-
...CENTRAL COLORADO...

CITY           SKY/WX    TMP DP  RH WIND       PRES   REMARKS
ASPEN          CLOUDY    40  37  89 SW5       30.15R
BUENA VISTA    PTCLDY    36  33  88 CALM      30.14S
COPPER MTN     FOG       34  30  86 W18G30    30.27R VSB 1/4 WCI  23
BERTHOUD PASS  CLOUDY    25  18  74 NW21G29   30.27R WCI  10
COTTONWOOD PAS PTCLDY    41  30  65 NW9G17    30.19S
GUNNISON       PTCLDY    37  32  81 CALM      30.20R
KREMMLING      CLOUDY    39  36  87 CALM      30.16R
LEADVILLE      CLOUDY    35  32  88 N6        30.19R WCI  30
SALIDA         PTCLDY    39  34  82 CALM      30.21R
SUNLIGHT       FOG       36  36 100 CALM      30.27S VSB 1
WILKERSON PASS PTCLDY    32  27  80 W7        30.26R WCI  26
$$

COZ069>075-261300-
...SAN LUIS VALLEY/SANGRE DE CRISTO MOUNTAINS...

CITY           SKY/WX    TMP DP  RH WIND       PRES   REMARKS
ALAMOSA        CLEAR     32  29  88 SW6       30.15R WCI  26
LA VETA PASS   PTCLDY   N/A N/A N/A MISG      30.21R
SAGUACHE       PTCLDY    37  34  87 N7        30.17R
$$

COZ035-036-038>040-261300-
...NORTHERN COLORADO FRONT RANGE...

CITY           SKY/WX    TMP DP  RH WIND       PRES   REMARKS
DENVER INTL AP PTCLDY    47  42  83 SW8       30.03R
DMNS CITY PARK   N/A     45  43  93 S5        30.04R
AURORA         PTCLDY    44  41  90 S7        30.05R
FRONT RANGE AP PTCLDY    46  43  87 CALM      30.05R
ERIE MUNI ARPT CLOUDY    41  40  99 CALM      30.03R
BOULDER MUN AP MOCLDY    45  43  93 S3        30.03R
CENTENNIAL     PTCLDY    44  41  89 SE7       30.04R
BROOMFIELD     CLEAR     45  41  87 CALM      30.04R
FORT COLLINS   MOCLDY    46  43  87 CALM      30.03S
LONGMONT       CLOUDY    46  43  90 CALM      30.05R
$$

COZ041-046-047-076>085-087-088-261300-
...PIKES PEAK/PALMER DIVIDE AND SOUTHERN FOOTHILLS...

CITY           SKY/WX    TMP DP  RH WIND       PRES   REMARKS
COLO. SPRINGS  PTCLDY    43  39  86 NW3       30.07R
A. F. ACADEMY  PTCLDY    37  37  99 N7        30.08R
ELLICOTT       NOT AVBL
FALCON         PTCLDY    40  38  91 CALM      30.10R
FORT CARSON    PTCLDY    43  39  86 W6        30.05R
LIMON          MOCLDY    46  42  86 NW8       30.04R
MONUMENT HILL  NOT AVBL
TRINIDAD       CLEAR     42  39  89 W12       30.07R
$$

COZ042>045-048>051-090-091-261300-
...NORTHEAST COLORADO...

CITY           SKY/WX    TMP DP  RH WIND       PRES   REMARKS
GREELEY ARPT   CLOUDY    46  45  93 CALM      30.02S
AKRON          MOCLDY    45  45 100 W5        30.01R FOG
BURLINGTON     CLEAR     46  43  89 W8        29.99R
WRAY           PTCLDY   N/A N/A N/A W3        29.96S
STERLING       CLOUDY    50  46  87 CALM      29.99R
HOLYOKE        NOT AVBL
FORT MORGAN    MOCLDY    47  43  87 NW6       30.01R
$$

COZ086-089-092>099-261300-
...SOUTHEAST COLORADO...

CITY           SKY/WX    TMP DP  RH WIND       PRES   REMARKS
PUEBLO         CLEAR     45  43  93 CALM      30.03R
LA JUNTA       NOT AVBL
LAMAR          PTCLDY    48  47  96 SW6       29.99R
SPRINGFIELD      N/A     46  44  93 NW7       30.01R
$$


USA.gov is the U.S. government's official web portal to all federal, state and local government web resources and services.